Location: El Mouella
(16.4949°N, 9.1594°W)
Time: 14:59:18
(UTC+00:00)

GPS 2-12 Rocket1 - Pass Details

Date: 02 June 2020
Orbit: 586 x 652 km, 20.0° (Epoch: 04 July)

Event Time Altitude Azimuth Distance (km) Brightness Sun altitude
Rises 20:16:04 0° 278° (W) 2,818 7.8 -15.7°
Reaches altitude 10° 20:18:27 10° 283° (WNW) 1,908 6.7 -16.2°
Maximum altitude 20:22:48 53° 0° (N) 719 3.5 -17.1°
Enters shadow 20:25:23 22° 69° (ENE) 1,273 4.3 -17.7°
